Terug naar catalogus

ONEWEB-0490

ActiefCommunicatiePO
NORAD 54113·PAYLOAD·🇬🇧 United Kingdom

Gelanceerd Oct 22, 2022 vanaf Satish Dhawan Space Centre

Loading…

Volgende Passages (komende 24 uur)

TLE

VersSource: CelesTrak SupGP

Epoch: Sep 14, 2026, 21:49 UTC

1 54113C 22138A   26257.90917083  .00001904  00000+0  47627-2 0  2577
2 54113  87.9113 287.0961 0001978  87.9487 307.9174 13.19722773    10

Volg ONEWEB-0490 in realtime met AllMySat

Download on the App Store